Home   Weather   Chhindwara   Past weeks

Flag for India Past Weather in Chhindwara, Madhya Pradesh, India — Yesterday and Last 2 Weeks

Now
79 °F

Haze.


Feels Like: 79 °F
Forecast: 55 / 84 °F
Wind: 5 mph from East

Location: Nagpur Sonegaon

Current Time: Jan 21, 2017 at 11:59:46 am

Latest Report: Jan 21, 2017 at 10:30 am


Visibility: 1 mi

Pressure: 30.15 "Hg (27.87 "Hg at 687m altitude)

Humidity: 45%

Dew Point: 55 °F

Location of ChhindwaraLocation

Past Weather in Chhindwara — Graph

°F

Chhindwara Temperature Yesterday

Maximum temperature yesterday: 84 °F (at 1:30 pm)
Minimum temperature yesterday: 61 °F (at 4:30 am)
Average temperature yesterday: 72 °F

High & Low Weather Summary for the Past Weeks

 TemperatureHumidityPressure
High88 °F (Jan 7, 2:30 pm)100% (Jan 9, 6:32 am)30.18 "Hg (Jan 9, 6:32 am)
Low50 °F (Jan 12, 7:30 am)18% (Jan 15, 2:30 pm)29.80 "Hg (Jan 7, 3:30 pm)
Average70 °F55%29.99 "Hg
* Reported Jan 6 10:30 am — Jan 21 10:30 am, Chhindwara, Weather by CustomWeather, © 2017

Note: Actual official high and low records may vary slightly from our data, if they occured in-between our weather recording intervals... More about our weather records

Advertising

Chhindwara Weather History for the Previous 24 Hours

Scroll right to see more
 ConditionsComfort  
Time TempWeatherWind HumidityBarometerVisibility
10:30 am
Sat, Jan 21
79 °FHaze.5 mph45%30.15 "Hg1 mi
10:00 am77 °FHaze.5 mph47%30.18 "Hg1 mi
9:30 am75 °FHaze.5 mph50%30.15 "Hg1 mi
9:00 am72 °FHaze.2 mph57%30.15 "Hg1 mi
8:00 am66 °FHaze.No wind68%30.12 "Hg1 mi
7:30 am63 °FHaze.No wind68%30.12 "Hg1 mi
7:00 am59 °FHaze.No wind82%30.09 "Hg1 mi
5:30 am61 °FHaze.No wind83%30.07 "Hg2 mi
4:00 am61 °FHaze.No wind83%30.07 "Hg2 mi
3:00 am63 °FHaze.No wind83%30.07 "Hg2 mi
2:30 am63 °FHaze.2 mph77%30.07 "Hg2 mi
2:00 am63 °FHaze.2 mph77%30.07 "Hg2 mi
1:30 am63 °FHaze.2 mph77%30.07 "Hg2 mi
1:00 am63 °FHaze.3 mph73%30.07 "Hg2 mi
12:30 am61 °FHaze.No wind77%30.07 "Hg2 mi
11:30 pm
Fri, Jan 20
63 °FHaze.No wind77%30.09 "Hg2 mi
10:30 pm66 °FHaze.No wind60%30.09 "Hg2 mi
10:00 pm68 °FHaze.No wind56%30.09 "Hg2 mi
9:30 pm68 °FHaze.No wind69%30.09 "Hg2 mi
9:00 pm68 °FHaze.No wind69%30.09 "Hg2 mi
8:30 pm70 °FHaze.No wind57%30.07 "Hg2 mi
8:00 pm72 °FHaze.No wind53%30.07 "Hg2 mi
7:30 pm72 °FHaze.2 mph50%30.07 "Hg2 mi
7:00 pm75 °FHaze.2 mph47%30.04 "Hg1 mi
6:30 pm77 °FHaze.2 mph42%30.04 "Hg1 mi
6:00 pm79 °FHaze.2 mph42%30.04 "Hg1 mi
5:30 pm81 °FHaze.2 mph39%30.04 "Hg1 mi
5:00 pm82 °FHaze.3 mph37%30.01 "Hg1 mi
4:30 pm84 °FHaze.5 mph35%30.01 "Hg2 mi
4:00 pm84 °FHaze.5 mph33%30.01 "Hg2 mi
3:30 pm84 °FHaze.6 mph33%30.01 "Hg2 mi
3:00 pm84 °FHaze.7 mph31%30.04 "Hg2 mi
2:30 pm82 °FHaze.6 mph37%30.04 "Hg2 mi
2:00 pm84 °FHaze.3 mph33%30.04 "Hg1 mi
1:30 pm84 °FHaze.6 mph35%30.07 "Hg1 mi
1:00 pm82 °FHaze.7 mph42%30.07 "Hg1 mi
12:30 pm82 °FHaze.6 mph40%30.09 "Hg1 mi
11:30 am81 °FHaze.6 mph45%30.15 "Hg1 mi
11:00 am79 °FHaze.3 mph48%30.15 "Hg1 mi
Weather by CustomWeather, © 2017

See weather overviewHow to use our weather pages